EW9931 Weather Reports


time (UTC)temp
C
wind
direction
speed
KPH
gust
KPH
rain 1hr
cm
rain 24hr
cm
rain mn
cm
humidity
%
barometer
mb
20260906070040 14 140 0.0 0.0 0.00 0.00 0.00 73 1004.0
20260906064540 14 140 0.0 0.0 0.00 0.00 0.00 72 1004.1
20260906063040 15 140 0.0 0.0 0.00 0.00 0.00 71 1004.2
20260906061545 15 138 0.0 0.0 0.00 0.00 0.00 71 1004.2
20260906060042 15 138 0.0 0.0 0.00 0.00 0.00 71 1005.2
20260906054542 15 138 0.0 0.0 0.00 0.00 0.00 69 1004.7
20260906053036 15 131 0.0 0.0 0.00 0.00 0.00 69 1005.2
20260906051537 15 131 0.0 0.0 0.00 0.00 0.00 65 1005.8
20260906050034 15 131 0.0 0.0 0.00 0.00 0.00 61 1006.4
20260906044532 14 131 0.0 0.0 0.00 0.00 0.00 51 1006.6
20260906043034 15 152 0.0 0.0 0.00 0.00 0.00 48 1006.8
20260906041531 15 172 0.0 0.0 0.00 0.00 0.00 48 1006.1
20260906040029 15 150 0.0 0.0 0.00 0.00 0.00 47 1006.5
20260906034549 15 150 0.0 0.0 0.00 0.00 0.00 43 1006.3
20260906033032 15 145 0.0 0.0 0.00 0.00 0.00 42 1006.2
20260906031530 15 136 0.0 0.0 0.00 0.00 0.00 41 1006.3
20260906030026 15 147 0.0 0.0 0.00 0.00 0.00 42 1006.6
20260906024526 15 133 1.6 0.0 0.00 0.00 0.00 42 1006.6
20260906023029 15 185 0.0 0.0 0.00 0.00 0.00 39 1006.2
20260906021528 16 193 0.0 0.0 0.00 0.00 0.00 38 1006.3
20260906020023 16 193 0.0 0.0 0.00 0.00 0.00 38 1006.6
20260906014522 16 195 0.0 0.0 0.00 0.00 0.00 37 1006.0
20260906013022 16 193 0.0 0.0 0.00 0.00 0.00 36 1006.1
20260906011521 16 138 0.0 0.0 0.00 0.00 0.00 34 1006.2
20260906010020 17 161 0.0 0.0 0.00 0.00 0.00 33 1006.1
20260906004520 17 175 0.0 0.0 0.00 0.00 0.00 33 1006.2
20260906003020 17 202 1.6 0.0 0.00 0.00 0.00 32 1006.0
20260906001538 17 209 0.0 0.0 0.00 0.00 0.00 31 1005.9
20260906000019 18 137 1.6 0.0 0.00 0.00 0.00 30 1005.6
20260905234517 18 128 4.8 0.0 0.00 0.00 0.00 28 1004.9
20260905233020 18 195 4.8 0.0 0.00 0.00 0.00 28 1004.8
20260905231522 19 144 4.8 0.0 0.00 0.00 0.00 27 1004.9
20260905230017 20 282 1.6 0.0 0.00 0.00 0.00 26 1004.8
20260905224514 19 168 4.8 0.0 0.00 0.00 0.00 27 1005.1
20260905223025 19 145 4.8 0.0 0.00 0.00 0.00 27 1005.1
20260905221511 20 206 3.2 0.0 0.00 0.00 0.00 28 1005.2
20260905220011 19 167 3.2 0.0 0.00 0.00 0.00 28 1005.4
20260905214513 19 202 4.8 0.0 0.00 0.00 0.00 30 1005.4
20260905213010 20 216 3.2 0.0 0.00 0.00 0.00 28 1005.5
20260905211506 19 144 4.8 0.0 0.00 0.00 0.00 28 1005.9
20260905210003 18 144 4.8 0.0 0.00 0.00 0.00 31 1005.9
20260905204501 18 140 6.4 0.0 0.00 0.00 0.00 34 1005.8
20260905203001 18 224 6.4 0.0 0.00 0.00 0.00 31 1006.1
20260905201556 18 222 6.4 0.0 0.00 0.00 0.00 34 1006.0
20260905200115 18 203 6.4 0.0 0.00 0.00 0.00 33 1005.8
20260905194549 18 200 6.4 0.0 0.00 0.00 0.00 35 1006.0
20260905193045 18 213 4.8 0.0 0.00 0.00 0.00 34 1005.8
20260905191542 18 192 4.8 0.0 0.00 0.00 0.00 35 1006.3
20260905190038 17 182 4.8 0.0 0.00 0.00 0.00 35 1006.1
20260905184543 17 171 4.8 0.0 0.00 0.00 0.00 34 1006.6
20260905183038 16 136 4.8 0.0 0.00 0.00 0.00 33 1006.8
20260905181526 16 213 4.8 0.0 0.00 0.00 0.00 27 1007.3
20260905180021 16 217 4.8 0.0 0.00 0.00 0.00 24 1007.3
20260905174521 16 136 4.8 0.0 0.00 0.00 0.00 19 1007.1
20260905173019 16 192 3.2 0.0 0.00 0.00 0.00 15 1007.6
20260905171515 15 196 4.8 0.0 0.00 0.00 0.00 13 1007.5
20260905170013 15 116 4.8 0.0 0.00 0.00 0.00 12 1007.5
20260905164513 15 130 3.2 0.0 0.00 0.00 0.00 14 1007.1
20260905163009 15 157 4.8 0.0 0.00 0.00 0.00 13 1007.0
20260905161507 15 117 4.8 0.0 0.00 0.00 0.00 12 1007.0
20260905160006 15 127 3.2 0.0 0.00 0.00 0.00 13 1006.9
20260905154503 14 191 3.2 0.0 0.00 0.00 0.00 15 1006.8
20260905153001 14 195 3.2 0.0 0.00 0.00 0.00 14 1006.9
20260905151624 13 106 3.2 0.0 0.00 0.00 0.00 15 1006.8
20260905150058 13 128 3.2 0.0 0.00 0.00 0.00 14 1006.7
20260905144556 13 195 1.6 0.0 0.00 0.00 0.00 16 1006.8
20260905143055 12 133 1.6 0.0 0.00 0.00 0.00 17 1006.6
20260905141553 12 200 1.6 0.0 0.00 0.00 0.00 18 1006.5
20260905140053 12 179 1.6 0.0 0.00 0.00 0.00 18 1006.5
20260905134553 12 157 3.2 0.0 0.00 0.00 0.00 17 1006.3
20260905133050 12 191 1.6 0.0 0.00 0.00 0.00 16 1006.0
20260905131558 12 198 3.2 0.0 0.00 0.00 0.00 18 1005.8
20260905130048 12 124 1.6 0.0 0.00 0.00 0.00 20 1005.3
20260905124547 12 154 0.0 0.0 0.00 0.00 0.00 21 1005.2
20260905123104 12 148 1.6 0.0 0.00 0.00 0.00 21 1005.1
20260905121544 12 179 1.6 0.0 0.00 0.00 0.00 21 1005.2
20260905120043 12 138 0.0 0.0 0.00 0.00 0.00 22 1004.6
20260905114545 12 152 0.0 0.0 0.00 0.00 0.00 23 1004.4
20260905113041 11 160 0.0 0.0 0.00 0.00 0.00 25 1004.4
20260905111541 12 143 0.0 0.0 0.00 0.00 0.00 25 1004.6
20260905110039 12 172 0.0 0.0 0.00 0.00 0.00 26 1004.1
20260905104539 12 126 0.0 0.0 0.00 0.00 0.00 26 1004.2
20260905103048 11 172 0.0 0.0 0.00 0.00 0.00 26 1004.1
20260905101537 12 138 1.6 0.0 0.00 0.00 0.00 26 1004.1
20260905100049 12 162 0.0 0.0 0.00 0.00 0.00 27 1004.1
20260905094535 12 150 1.6 0.0 0.00 0.00 0.00 27 1004.1
20260905093035 12 184 1.6 0.0 0.00 0.00 0.00 27 1004.1
20260905091541 12 185 0.0 0.0 0.00 0.00 0.00 28 1004.0
20260905090032 11 133 1.6 0.0 0.00 0.00 0.00 28 1003.6
20260905084530 11 200 1.6 0.0 0.00 0.00 0.00 29 1003.7
20260905083031 12 161 1.6 0.0 0.00 0.00 0.00 29 1003.7
20260905081527 12 140 1.6 0.0 0.00 0.00 0.00 28 1003.9
20260905080034 12 124 1.6 0.0 0.00 0.00 0.00 29 1003.9
20260905074528 12 161 1.6 0.0 0.00 0.00 0.00 28 1003.9
20260905073027 12 126 1.6 0.0 0.00 0.00 0.00 28 1004.0
20260905071525 12 148 1.6 0.0 0.00 0.00 0.00 28 1003.9